Flag for U.S.A. Weather past 2 weeks in Manhattan, Kansas, U.S.A.

Now
42 °F

Fog.


Feels Like: 34 °F
Forecast: 37 / 44 °F
Wind: 16 mph from Southwest

Location: Manhattan Municipal Airport

Current Time: Dec 21, 2014 at 11:16:24 AM

Latest Report: Dec 21, 2014 at 10:52 AM


Visibility: 6 mi

Pressure: 29.93 "Hg

Humidity: 89%

Dew point: 39 °F

Location of ManhattanLocation

Historic Weather in Manhattan — Graph

°F

Manhattan temperature yesterday

Maximum temperature yesterday: 49 °F (at 3:52 PM)
Minimum temperature yesterday: 27 °F (at 4:52 AM)
Average temperature yesterday: 38 °F

Past Weeks' High & Low Weather Summary

 TemperatureHumidityPressure
High60 °F (Dec 14, 2:52 PM)100% (Dec 7, 4:52 AM)30.58 "Hg (Dec 7, 4:52 AM)
Low24 °F (Dec 16, 8:52 PM)37% (Dec 8, 1:52 PM)29.52 "Hg (Dec 15, 6:52 AM)
Average38 °F87%30.19 "Hg
* Reported Dec 6 9:00 AM — Dec 21 9:52 AM, Manhattan, Weather by CustomWeather, © 2014

Note: Actual official high and low records may vary slightly from our data, if they occured in-between our weather recording intervals... More about our weather records

Advertising

Manhattan weather history for previous 24 hours

 ConditionsComfort  
Time TempWeatherWind HumidityBarometerVisibility
9:52 AM
Dec 21
42 °FOvercast.12 mph85%29.95 "Hg7 mi
8:52 AM41 °FFog.9 mph89%29.96 "Hg6 mi
7:52 AM41 °FOvercast.14 mph89%29.98 "Hg9 mi
6:52 AM42 °FOvercast.13 mph82%29.98 "Hg10 mi
5:52 AM40 °FOvercast.7 mph89%29.99 "Hg9 mi
4:52 AM38 °FPassing clouds.7 mph90%30.00 "Hg8 mi
3:52 AM37 °FClear.7 mph89%30.02 "Hg9 mi
2:52 AM41 °FPassing clouds.7 mph82%30.03 "Hg10 mi
1:52 AM42 °FOvercast.13 mph85%30.04 "Hg10 mi
12:52 AM42 °FOvercast.14 mph85%30.05 "Hg9 mi
11:52 PM
Dec 20
39 °FFog.5 mph89%30.06 "Hg6 mi
10:52 PM36 °FFog.3 mph92%30.07 "Hg6 mi
9:52 PM37 °FFog.3 mph93%30.09 "Hg6 mi
8:52 PM39 °FPassing clouds.7 mph89%30.10 "Hg8 mi
7:52 PM39 °FClear.7 mph89%30.09 "Hg10 mi
6:52 PM40 °FClear.8 mph89%30.10 "Hg9 mi
5:52 PM39 °FPassing clouds.3 mph93%30.10 "Hg7 mi
4:52 PM44 °FSunny.6 mph85%30.09 "Hg8 mi
3:52 PM49 °FPassing clouds.14 mph74%30.08 "Hg9 mi
2:52 PM48 °FPassing clouds.12 mph74%30.08 "Hg8 mi
1:52 PM47 °FScattered clouds.10 mph74%30.08 "Hg7 mi
12:52 PM47 °FSunny.10 mph74%30.10 "Hg7 mi
11:52 AM44 °FSunny.12 mph79%30.12 "Hg6 mi
Weather by CustomWeather, © 2014

See weather overviewHow to use our weather pages